sat.trackr.live / text

‹ back to catalog

ALCOMSAT 1

NORAD 43039 · 2017-078A

PAYLOAD ACTIVE UNKNOWN

§ Identity

Operator
Country
ALG
Launch date
2017-12-10
Launch site
XICLF
Launch vehicle
Mass (kg)
RCS (m²)

Purposes: comms

External: N2YO · Heavens-Above · Gunter

§ Orbital elements

Epoch: 2026-05-25T03:37:32.938752Z

Period
1,436.10 min
Inclination
0.0131°
Eccentricity
0.0002588
Mean motion
1.00271371 rev/d
Perigee alt
35,775.8 km
Apogee alt
35,797.6 km
Semi-major
42,164.8 km
B*
0.0000e+0
RAAN
312.0721°
Arg perigee
97.2270°
Mean anomaly
223.0481°
Rev number
3,106

§ Raw data

ALCOMSAT 11 43039U 17078A   26145.15107568 -.00000188  00000+0  00000+0 0  99992 43039   0.0131 312.0721 0002588  97.2270 223.0481  1.00271371 31064

JSON: /api/v1/satellites/43039 · /tle

For live sub-satellite position, see the globe view (requires WebGL).

§ Visibility from observer

Set your observer location to see the next 7 days of passes ≥ 10°. The values pass through the URL so the page stays shareable.

No JS? Fill the form by hand. The geolocation button needs JavaScript.